This demonstration page uses our WeatherBlox Daily Observations layout. Learn more.

41.55636, -103.73856

Hourly Observations for July 5, 2019

Temp ( °F °C ) Dew Point ( °F °C ) Humidity (%) Winds ( mph kmh ) Pressure ( in mb ) Visibility ( mi km ) Precip ( " mm )
12:58 am 00:58 Mostly Cloudy 67 19.4 62 16.6 84 84 SE 12 19 29.94 1014 10 16.0934 0 0
1:58 am 01:58 Cloudy 66 19 63 17 88 88 ESE 9 15 29.94 1014 10 16.0934 0 0
2:58 am 02:58 Mostly Clear 64 17.9 62 16.6 92 92 ESE 10 17 29.93 1014 7 11.26538 0 0
3:58 am 03:58 Mostly Cloudy with Mist and Fog 65 18.2 63 17.2 94 94 SE 17 28 29.94 1014 4 6.43736 0 0
5:58 am 05:58 Mostly Cloudy 66 19.1 63 17.3 89 89 SE 8 13 29.93 1014 8 12.87472 0 0
6:58 am 06:58 Mostly Cloudy 66 19 63 17.4 91 91 Calm 29.96 1015 7 11.26538 0 0
7:58 am 07:58 Mostly Cloudy 59 14.9 55 12.5 86 86 NNE 16 26 29.97 1015 10 16.0934 0 0
8:58 am 08:58 Mostly Cloudy 57 14 54 12.1 88 88 NE 6 9 30.01 1016 10 16.0934 0 0
9:58 am 09:58 Cloudy 56 13.2 54 12 93 93 NNW 3 6 30.04 1017 10 16.0934 0 0
10:58 am 10:58 Mostly Cloudy 56 13.2 54 12 93 93 NNE 3 6 30.05 1018 10 16.0934 0 0
11:58 am 11:58 Mostly Cloudy with Mist and Fog 55 13 54 12.2 95 95 WNW 9 15 30.09 1019 6 9.65604 0 0
12:58 pm 12:58 Mostly Cloudy 56 13.5 54 12.1 91 91 SW 6 9 30.09 1019 10 16.0934 0 0
1:58 pm 13:58 Mostly Cloudy 57 13.7 54 12.4 92 92 W 5 7 30.13 1020 10 16.0934 0 0
2:58 pm 14:58 Partly Cloudy 61 16.2 55 12.8 80 80 Calm 30.14 1021 10 16.0934 0 0
3:58 pm 15:58 Mostly Cloudy 65 18.3 56 13.2 72 72 SSE 15 24 30.13 1020 10 16.0934 0 0
4:58 pm 16:58 Mostly Cloudy 67 19.2 58 14.5 74 74 SSW 13 20 30.11 1020 10 16.0934 0 0
5:58 pm 17:58 Mostly Sunny 69 20.7 59 14.8 69 69 S 16 26 30.11 1020 10 16.0934 0 0
6:58 pm 18:58 Partly Cloudy 72 22.4 59 15.2 64 64 S 16 26 30.08 1019 10 16.0934 0 0
7:58 pm 19:58 Mostly Sunny 73 22.7 58 14.7 61 61 S 13 20 30.07 1018 10 16.0934 0 0
8:58 pm 20:58 Partly Cloudy 75 24 61 15.9 61 61 SSW 12 19 30.09 1019 10 16.0934 0 0

Powered by AerisWeather